Regional Weather Roundup
Issued by NWS

Home | Current Version | Previous Version | Graphics & Text | Print | Product List | Glossary On
Versions: 1 2 3 4 5 6 7 8 9 10 11 12 13 14 15 16 17 18 19 20 21 22 23 24 25 26 27 28 29 30 31 32 33 34 35 36 37 38 39 40 41 42 43 44 45 46 47 48 49 50
000
ASUS43 KTOP 222308
RWRKS

WEATHER ROUNDUP FOR KANSAS
NATIONAL WEATHER SERVICE GOODLAND KS
600 PM CDT FRI SEP 22 2017

NOTE:  "FAIR" INDICATES FEW OR NO CLOUDS BELOW 12,000 FEET WITH NO
SIGNIFICANT WEATHER AND/OR OBSTRUCTIONS TO VISIBILITY.

KSZ001>006-013>018-027>032-041>047-230000-
NORTHWEST KANSAS

CITY           SKY/WX    TMP DP  RH WIND       PRES   REMARKS
GOODLAND       PTSUNNY   91  42  18 S25G38    29.75S
HAYS           SUNNY     92  60  34 S23G35    29.77R
HILL CITY      CLOUDY    95  55  26 S20G35    29.74F
RUSSELL        SUNNY     93  61  34 S23G38    29.78S
$$

KSZ061>065-074>080-084>089-230000-
SOUTHWEST KANSAS

CITY           SKY/WX    TMP DP  RH WIND       PRES   REMARKS
DODGE CITY     MOSUNNY   92  57  30 S26G35    29.82S
ELKHART          N/A     87  61  41 S17         N/A
GARDEN CITY    MOSUNNY   92  52  25 S24G33    29.78F
GREAT BEND     SUNNY     92  63  38 S28G35    29.80F
LIBERAL        SUNNY     91  59  33 S26G37    29.79
PRATT          SUNNY     90  59  35 S22G33    29.84S
$$

KSZ066>073-081>083-090>101-230000-
SOUTHEAST KANSAS

CITY           SKY/WX    TMP DP  RH WIND       PRES   REMARKS
CHANUTE        SUNNY     87  68  52 S14       29.93S
COFFEYVILLE    SUNNY     88  68  51 S16       29.91F
HUTCHINSON     MOSUNNY   91  64  40 S23G32    29.84S
MEDICINE LODGE   N/A     90  63  40 S17G32    29.83S
NEWTON         MOSUNNY   89  67  47 S18       29.87S
PARSONS        SUNNY     87  68  52 S8        29.93F
WICHITA INTL   MOSUNNY   91  66  43 S21G30    29.86R
WICHITA JABRA  MOSUNNY   88  68  51 S16G26    29.87S
WICHITA MCCONL MOSUNNY   89  66  46 S21G29    29.88R
WINFIELD       SUNNY     87  69  54 SE20G26   29.90R
$$

KSZ007>012-019>026-033>040-048>060-102>105-230000-
NORTHEAST KANSAS

CITY           SKY/WX    TMP DP  RH WIND       PRES   REMARKS
CONCORDIA      SUNNY     90  66  45 S23G31    29.81S
EMPORIA        SUNNY     87  67  51 SE18G25   29.89S
LAWRENCE       SUNNY     87  70  56 SE14      29.90S
MANHATTAN      SUNNY     92  67  43 S16G28    29.84R HX  95
MARYSVILLE     SUNNY     90  68  48 S16G24    29.84R
OLATHE IND     SUNNY     85  69  58 S15       29.94S
OLATHE EXE     SUNNY     84  70  62 S13G22    29.94S
SALINA         MOSUNNY   95  64  35 S24G35    29.81S HX  97
TOPEKA BILLARD SUNNY     88  70  55 SE20G25   29.89S
TOPEKA FORBES  SUNNY     89  70  53 S15       29.90S
$$



USA.gov is the U.S. government's official web portal to all federal, state and local government web resources and services.